User: anonymous   Login
Location: Unspecified
(40.7945°N, 0.0000°E)
Time: 08:50:59
(UTC+00:00)
Language:

METEOR M2 - Orbit

View from above orbital plane
View from above orbital plane
View from above satellite
View from above satellite

Ground track
Ground track

The orbit data is extracted from the following two-line orbital elements,

1 40069U 14037A   19237.12044576 -.00000036  00000-0  28904-5 0  9993
2 40069  98.5456 280.2382 0006647  69.5865 290.6031 14.20663927265997
Epoch (UTC): 25 August 2019 02:53:26
Eccentricity: 0.0006647
inclination: 98.5456°
perigee height: 818 km
apogee height: 828 km
right ascension of ascending node: 280.2382°
argument of perigee: 69.5865°
revolutions per day: 14.20663927
mean anomaly at epoch: 290.6031°
orbit number at epoch: 26599

The dashed part of the orbit path shows where the satellite is in the earth's shadow,  

DLR